Tiempo atmosférico en la estación meteorológica de Becerreá, Lugo (1080 m.)



Fecha
DESCASC
Temp. máxima en grados centígrados (hora)
DESCASC
Temp. mínima en grados centígrados (hora)
DESCASC
Temp. media en grados centígrados
DESCASC
Racha de viento máxima en m/sg (hora)
DESCASC
Velocidad máxima media en intervalos de 10 minutos(hora)
DESCASC
Precipitaciones diarias en mm
DESCASC
Precipitaciones de 00:00 a 06:00 en mm
DESCASC
Precipitaciones de 06:00 a 12:00 en mm
DESCASC
Precipitaciones de 12:00 a 18:00 en mm
DESCASC
Precipitaciones de 18:00 a 24:00 en mm
DESCASC
05-04-2020 11.3 (13:20) 8.3 (09:10) 9.8 15.56 (16:10) 5.83 (01:20) 6.2 0 0.2 3.6 2.4
04-04-2020 16.6 (15:40) 6.2 (08:10) 11.4 10.56 (10:20) 5.28 (23:20) 0 0 0 0 0
03-04-2020 14.2 (17:50) 1.8 (04:10) 8 8.06 (15:00) 5 (09:00) 0 0 0 0 0
02-04-2020 10.1 (15:50) 2.6 (00:00) 6.4 8.61 (09:50) 3.06 (16:00) 0.4 0.4 0 0 0
01-04-2020 11.7 (15:30) 2.2 (00:00) 6.9 9.72 (04:20) 4.72 (19:30) 3.8 2.2 0 0.2 1.4
31-03-2020 7.2 (16:10) -3 (-00:0) 2.1 11.39 (01:20) 5 (01:00) 0 0 0 0 0
30-03-2020 4.6 (13:00) -2.4 (-00:0) 1.1 14.72 (11:10) 5.83 (19:50) 0 0 0 0 0
29-03-2020 12.1 (16:30) 2.3 (00:00) 7.2 11.39 (23:20) 4.17 (21:50) 0 0 0 0 0
28-03-2020 13 (13:40) 3.9 (00:00) 8.5 7.22 (03:20) 4.44 (07:50) 0 0 0 0 0
27-03-2020 10.7 (15:30) -2.1 (-00:0) 4.3 11.11 (17:20) 4.44 (18:10) 0 0 0 0 0
26-03-2020 10.3 (15:50) 0.8 (00:00) 5.6 10.28 (23:50) 4.17 (23:50) 0 0 0 0 0
25-03-2020 15 (16:10) 4.2 (00:00) 9.6 8.33 (13:20) 4.17 (15:10) 0 0 0 0 0
24-03-2020 14.1 (14:00) 5.2 (00:00) 9.7 10.28 (05:10) 5 (05:20) 0 0 0 0 0
23-03-2020 12.2 (16:10) 3.8 (00:00) 8 6.11 (16:50) 2.5 (16:50) 0 0 0 0 0
22-03-2020 10.4 (16:40) 5.1 (07:10) 7.7 7.78 (20:30) 3.33 (20:30) 0.2 0 0 0.2 0
21-03-2020 13.3 (16:30) 6.5 (00:00) 9.9 10 (07:10) 3.89 (07:40) 10.6 0 0 9.8 0.8
20-03-2020 10.8 (15:30) 6.4 (00:00) 8.6 8.33 (16:50) 4.44 (07:10) 7.2 0 6 1.2 0
19-03-2020 16.1 (13:00) 8 (00:00) 12.1 8.61 (18:20) 4.72 (08:20) 3.8 0 0 1.8 2
18-03-2020 17.7 (16:30) 8.2 (00:00) 13 8.89 (00:50) 5 (00:50) 0 0 0 0 0
17-03-2020 13.2 (15:30) 0.4 (00:00) 6.8 11.67 (00:20) 5 (00:20) 0 0 0 0 0
16-03-2020 2.8 (15:00) -1.2 (-00:0) 0.8 14.44 (18:20) 6.11 (23:20) 9.2 0 4 5.2 0
15-03-2020 9.6 (02:40) -0.9 (-00:0) 4.4 10.28 (15:20) 6.11 (14:50) 3 0 0 2.8 0.2
14-03-2020 13.6 (16:00) 0.9 (00:00) 7.3 5.83 (17:00) 3.61 (17:00) 0 0 0 0 0
13-03-2020 8.8 (16:30) 2.9 (07:10) 5.9 7.78 (05:30) 3.33 (00:30) 0 0 0 0 0
12-03-2020 9 (15:40) 3.8 (00:00) 6.4 8.33 (20:40) 3.33 (22:00) 0 0 0 0 0
11-03-2020 17.5 (16:20) 8.5 (00:00) 13 8.33 (15:40) 4.44 (20:00) 0 0 0 0 0
10-03-2020 15.8 (16:40) 6.8 (00:00) 11.3 8.89 (12:50) 4.72 (00:40) 0 0 0 0 0
09-03-2020 9.3 (17:20) 2.1 (00:00) 5.7 6.94 (13:40) 3.89 (23:59) 0 0 0 0 0
08-03-2020 7.9 (16:40) 2.5 (00:00) 5.2 11.39 (04:00) 5.56 (04:10) 1.6 0 1.6 0 0

Gráficas

Temp. máximas Temp. mínimas Temp. medias Precipitaciones Rachas de viento máximas Velocidades máximas media en intervalos de 10 minutos

Datos horarios

Fecha y hora oficial Temperatura (ºC) Velocidad del viento (km/h) Dirección del viento Racha (km/h) Dirección de racha Precipitación (mm) Presión (hPa) Tendencia (hPa) Humedad (%)
2020-04-06 23:00:00 7.4 3 Este 6 Este 0 -- -- 100
2020-04-06 22:00:00 7.5 4 Este 11 Este 0 -- -- 100
2020-04-06 21:00:00 7.4 4 Este 7 Nordeste 0 -- -- 97
2020-04-06 20:00:00 7.7 3 Norte 9 Noroeste 0 -- -- 89
2020-04-06 19:00:00 7.8 3 Noroeste 10 Noroeste 0 -- -- 93
2020-04-06 18:00:00 8 7 Oeste 10 Sudoeste 1.4 -- -- 94
2020-04-06 17:00:00 9.3 0 Calma 10 Noroeste 0 -- -- 95
2020-04-06 16:00:00 9.1 2 Norte 6 Norte 0 -- -- 93
2020-04-06 15:00:00 8.8 2 Norte 7 Nordeste 0 -- -- 95
2020-04-06 14:00:00 8.7 2 Nordeste 6 Este 0 -- -- 98
2020-04-06 13:00:00 8.2 3 Nordeste 6 Norte 0 -- -- 100
2020-04-06 12:00:00 7.1 0 Calma 8 Oeste 0 -- -- 100
2020-04-06 11:00:00 6.2 5 Oeste 10 Oeste 0 -- -- 100
2020-04-06 10:00:00 6.2 4 Oeste 19 Oeste 0.2 -- -- 100
2020-04-06 09:00:00 6.1 5 Oeste 17 Oeste 0.4 -- -- 100
2020-04-06 08:00:00 6 9 Oeste 19 Oeste 0.6 -- -- 100
2020-04-06 07:00:00 6.4 6 Oeste 14 Oeste 0.2 -- -- 100
2020-04-06 06:00:00 6.5 5 Oeste 13 Oeste 0.2 -- -- 100
2020-04-06 05:00:00 6.6 5 Oeste 21 Oeste 0.2 -- -- 100
2020-04-06 04:00:00 7.2 7 Oeste 17 Oeste 1.6 -- -- 100
2020-04-06 03:00:00 7.3 12 Oeste 25 Oeste 0 -- -- 100
2020-04-06 02:00:00 7.4 15 Sudoeste 26 Sudoeste 0.2 -- -- 100
2020-04-06 01:00:00 7.8 12 Sudoeste 22 Oeste 0.4 -- -- 100
2020-04-06 00:00:00 8.5 5 Oeste 18 Sudoeste 1.6 -- -- 99
2020-04-05 23:00:00 8.7 6 Sudoeste 25 Sudoeste 0.6 -- -- 98
2020-04-05 22:00:00 8.9 11 Sur 23 Sur 0 -- -- 95
2020-04-05 21:00:00 9.2 9 Sudoeste 29 Sur 0 -- -- 93
2020-04-05 20:00:00 9.9 10 Sur 25 Sur 0 -- -- 90
2020-04-05 19:00:00 9.6 15 Sur 35 Sur 0.2 -- -- 90
2020-04-05 18:00:00 9.5 15 Sur 37 Sur 0 -- -- 91
2020-04-05 17:00:00 8.7 18 Sur 56 Sur 1.6 -- -- 95
2020-04-05 16:00:00 8.9 17 Sur 41 Sur 1 -- -- 91
2020-04-05 15:00:00 9.5 17 Sur 37 Sur 0.8 -- -- 92
2020-04-05 14:00:00 10.4 20 Sur 47 Sur 0.2 -- -- 85
2020-04-05 13:00:00 11 14 Sur 36 Sur 0 -- -- 81
2020-04-05 12:00:00 10.2 10 Sudeste 40 Sur 0 -- -- 84
2020-04-05 11:00:00 9.7 17 Sur 32 Sur 0 -- -- 86
2020-04-05 10:00:00 8.8 10 Sudeste 29 Sudeste 0 -- -- 91
2020-04-05 09:00:00 8.4 10 Sudeste 40 Sur 0.2 -- -- 91
2020-04-05 08:00:00 8.6 11 Sudeste 35 Sur 0 -- -- 86
2020-04-05 07:00:00 8.8 12 Sudeste 32 Sur 0 -- -- 85
2020-04-05 06:00:00 9.2 8 Sudeste 33 Este 0 -- -- 76
2020-04-05 05:00:00 9.3 10 Sur 28 Sur 0 -- -- 73
2020-04-05 04:00:00 9.3 13 Sudeste 30 Sur 0 -- -- 73
2020-04-05 03:00:00 9.5 12 Sudeste 44 Sudeste 0 -- -- 70
2020-04-05 02:00:00 9.9 18 Sur 45 Sur 0 -- -- 66
2020-04-05 01:00:00 9.9 15 Sudeste 40 Sudeste 0 -- -- 63
2020-04-05 00:00:00 10.2 16 Sudeste 37 Sudeste 0 -- -- 60
2020-04-04 23:00:00 10.6 11 Sudeste 34 Sudeste 0 -- -- 57
2020-04-04 22:00:00 11.1 13 Sur 29 Sur 0 -- -- 58
2020-04-04 21:00:00 11.7 9 Sur 19 Sudeste 0 -- -- 53
2020-04-04 20:00:00 12.4 7 Sudeste 28 Sur 0 -- -- 50
2020-04-04 19:00:00 13.5 10 Sudeste 30 Sudeste 0 -- -- 47
2020-04-04 18:00:00 13.7 9 Este 32 Sudeste 0 -- -- 48
2020-04-04 17:00:00 14.4 6 Este 29 Sudeste 0 -- -- 51
2020-04-04 16:00:00 15.4 7 Este 21 Este 0 -- -- 49
2020-04-04 15:00:00 14.8 6 Este 22 Este 0 -- -- 53
2020-04-04 14:00:00 13.8 8 Este 23 Este 0 -- -- 53
2020-04-04 13:00:00 14.2 10 Este 32 Este 0 -- -- 55
2020-04-04 12:00:00 13 9 Este 31 Sudeste 0 -- -- 56
2020-04-04 11:00:00 10.4 10 Este 38 Sudeste 0 -- -- 63
2020-04-04 10:00:00 8.5 14 Este 35 Sudeste 0 -- -- 67
2020-04-04 09:00:00 6.7 9 Este 28 Este 0 -- -- 74
2020-04-04 08:00:00 6.4 18 Sudeste 32 Sudeste 0 -- -- 72
2020-04-04 07:00:00 7.1 12 Sudeste 28 Sudeste 0 -- -- 70
2020-04-04 06:00:00 7.3 11 Sudeste 22 Sur 0 -- -- 68
2020-04-04 05:00:00 7.3 10 Sudeste 19 Sudeste 0 -- -- 69
2020-04-04 04:00:00 6.9 9 Sudeste 23 Sudeste 0 -- -- 74
2020-04-04 03:00:00 7.1 6 Sudeste 13 Sudeste 0 -- -- 74
2020-04-04 02:00:00 8.3 7 Sudeste 18 Sur 0 -- -- 68
2020-04-04 01:00:00 8.8 5 Sur 18 Sudoeste 0 -- -- 67
2020-04-04 00:00:00 9.4 6 Sur 13 Sur 0 -- -- 62
2020-04-03 23:00:00 9.5 4 Este 13 Este 0 -- -- 68
2020-04-03 22:00:00 9.6 6 Oeste 14 Oeste 0 -- -- 58
2020-04-03 21:00:00 11.2 8 Oeste 15 Sudoeste 0 -- -- 52
2020-04-03 20:00:00 12.8 9 Oeste 19 Oeste 0 -- -- 49
2020-04-03 19:00:00 13.7 11 Oeste 25 Oeste 0 -- -- 47
2020-04-03 18:00:00 14 11 Oeste 27 Oeste 0 -- -- 48
2020-04-03 17:00:00 13.8 11 Oeste 25 Oeste 0 -- -- 47
2020-04-03 16:00:00 13 13 Oeste 24 Oeste 0 -- -- 52
2020-04-03 15:00:00 12.2 14 Oeste 29 Oeste 0 -- -- 57
2020-04-03 14:00:00 11.4 13 Oeste 27 Sudoeste 0 -- -- 56
2020-04-03 13:00:00 11.2 6 Oeste 13 Sudoeste 0 -- -- 64
2020-04-03 12:00:00 10.2 5 Sudeste 20 Sudeste 0 -- -- 72
2020-04-03 11:00:00 8.3 9 Sur 18 Sudeste 0 -- -- 74
2020-04-03 10:00:00 6.5 10 Sudeste 25 Sudeste 0 -- -- 82
2020-04-03 09:00:00 4.1 18 Sudeste 24 Sudeste 0 -- -- 87
2020-04-03 08:00:00 4.2 11 Sudeste 17 Sur 0 -- -- 91
2020-04-03 07:00:00 4.5 11 Sudeste 21 Sudeste 0 -- -- 91
2020-04-03 06:00:00 4.1 14 Sudeste 24 Sudeste 0 -- -- 94
2020-04-03 05:00:00 3.5 10 Sudeste 20 Sudeste 0 -- -- 100
2020-04-03 04:00:00 1.9 5 Este 13 Este 0 -- -- 100
2020-04-03 03:00:00 2.1 6 Este 17 Este 0 -- -- 100
2020-04-03 02:00:00 2.3 6 Este 14 Este 0 -- -- 100
2020-04-03 01:00:00 2.3 6 Este 22 Norte 0 -- -- 100
2020-04-03 00:00:00 2.6 9 Nordeste 22 Nordeste 0 -- -- 100
2020-04-02 23:00:00 2.9 8 Este 22 Nordeste 0 -- -- 99
2020-04-02 22:00:00 3.5 7 Nordeste 21 Nordeste 0 -- -- 98
2020-04-02 21:00:00 4.7 8 Nordeste 17 Nordeste 0 -- -- 94
2020-04-02 20:00:00 6.5 7 Nordeste 22 Nordeste 0 -- -- 87
2020-04-02 19:00:00 8.8 9 Nordeste 26 Norte 0 -- -- 77
2020-04-02 18:00:00 9 7 Nordeste 23 Este 0 -- -- 70
2020-04-02 17:00:00 10 9 Nordeste 26 Nordeste 0 -- -- 73
2020-04-02 16:00:00 9.4 11 Nordeste 24 Nordeste 0 -- -- 75
2020-04-02 15:00:00 8.7 10 Nordeste 24 Nordeste 0 -- -- 83
2020-04-02 14:00:00 9.6 7 Nordeste 28 Este 0 -- -- 87
2020-04-02 13:00:00 8.1 9 Este 26 Nordeste 0 -- -- 97
2020-04-02 12:00:00 8.8 9 Este 24 Este 0 -- -- 100
2020-04-02 11:00:00 5.6 10 Nordeste 23 Nordeste 0 -- -- 100
2020-04-02 10:00:00 5.2 8 Nordeste 31 Nordeste 0 -- -- 100
2020-04-02 09:00:00 5 6 Nordeste 19 Nordeste 0 -- -- 100
2020-04-02 08:00:00 4.9 9 Este 22 Nordeste 0 -- -- 100
2020-04-02 07:00:00 4.6 7 Nordeste 18 Nordeste 0 -- -- 100
2020-04-02 06:00:00 4.2 8 Nordeste 20 Nordeste 0 -- -- 100
2020-04-02 05:00:00 4.3 4 Nordeste 18 Nordeste 0 -- -- 100
2020-04-02 04:00:00 4.5 8 Este 22 Nordeste 0.2 -- -- 100
2020-04-02 03:00:00 4.9 4 Este 16 Nordeste 0.2 -- -- 100
2020-04-02 02:00:00 4.7 4 Nordeste 16 Nordeste 0 -- -- 100
2020-04-02 01:00:00 4.5 5 Nordeste 14 Este 0 -- -- 100
2020-04-02 00:00:00 4.6 5 Este 13 Nordeste 0 -- -- 100
2020-04-01 23:00:00 4.7 5 Este 9 Nordeste 0 -- -- 99
2020-04-01 22:00:00 4.7 0 Calma 9 Sur 0.8 -- -- 98
2020-04-01 21:00:00 4.6 5 Noroeste 24 Sudoeste 0.6 -- -- 99
2020-04-01 20:00:00 4.5 14 Oeste 27 Oeste 0 -- -- 98
2020-04-01 19:00:00 6.1 14 Oeste 22 Oeste 0 -- -- 89
2020-04-01 18:00:00 9.2 8 Este 22 Nordeste 0 -- -- 77
2020-04-01 17:00:00 10.5 8 Nordeste 23 Norte 0 -- -- 73
2020-04-01 16:00:00 11.5 4 Este 12 Nordeste 0 -- -- 59
2020-04-01 15:00:00 9.8 4 Nordeste 15 Sudeste 0 -- -- 71
2020-04-01 14:00:00 10.2 5 Nordeste 13 Este 0.2 -- -- 73
2020-04-01 13:00:00 9.1 5 Este 17 Este 0 -- -- 75
2020-04-01 12:00:00 8.5 7 Este 20 Este 0 -- -- 90
2020-04-01 11:00:00 5.6 10 Este 28 Este 0 -- -- 95
2020-04-01 10:00:00 3.7 10 Este 26 Este 0 -- -- 100
2020-04-01 09:00:00 2.5 6 Este 17 Este 0 -- -- 99
2020-04-01 08:00:00 2.6 12 Sudeste 21 Sudeste 0 -- -- 98
2020-04-01 07:00:00 2.9 12 Sudeste 22 Sudeste 0 -- -- 97
2020-04-01 06:00:00 2.8 11 Sudeste 22 Sudeste 0.4 -- -- 99
2020-04-01 05:00:00 3.1 10 Este 35 Este 1 -- -- 99
2020-04-01 04:00:00 3.7 11 Este 27 Este 0.8 -- -- 98
2020-04-01 03:00:00 3.5 8 Este 27 Sudeste 0 -- -- 96
2020-04-01 02:00:00 2.4 10 Este 28 Este 0 -- -- 99
2020-04-01 01:00:00 2.2 10 Este 29 Este 0 -- -- 97
2020-04-01 00:00:00 2.5 13 Este 33 Este 0 -- -- 97
2020-03-31 23:00:00 2.2 9 Este 15 Este 0 -- -- 96
2020-03-31 22:00:00 2.3 9 Este 19 Sudeste 0 -- -- 96
2020-03-31 21:00:00 2.3 8 Este 17 Este 0 -- -- 94
2020-03-31 20:00:00 3.1 5 Este 15 Nordeste 0 -- -- 90
2020-03-31 19:00:00 4.4 6 Este 16 Este 0 -- -- 79
2020-03-31 18:00:00 5.6 5 Nordeste 18 Nordeste 0 -- -- 73
2020-03-31 17:00:00 6.4 6 Este 16 Este 0 -- -- 68
2020-03-31 16:00:00 7.1 5 Este 13 Nordeste 0 -- -- 64
2020-03-31 15:00:00 5.5 6 Este 25 Nordeste 0 -- -- 66
2020-03-31 14:00:00 4.5 8 Este 19 Nordeste 0 -- -- 69
2020-03-31 13:00:00 4.5 8 Este 27 Este 0 -- -- 64
2020-03-31 12:00:00 2.6 10 Este 20 Este 0 -- -- 76
2020-03-31 11:00:00 -1.4 8 Este 22 Este 0 -- -- 91
2020-03-31 10:00:00 -2.1 10 Este 18 Este 0 -- -- 94
2020-03-31 09:00:00 -2.6 10 Este 21 Nordeste 0 -- -- 95
2020-03-31 08:00:00 -2.9 10 Este 26 Este 0 -- -- 94
2020-03-31 07:00:00 -3 12 Nordeste 32 Nordeste 0 -- -- 92
2020-03-31 06:00:00 -3 13 Este 35 Este 0 -- -- 93
2020-03-31 05:00:00 -2.8 12 Este 38 Nordeste 0 -- -- 94
2020-03-31 04:00:00 -2.7 12 Este 39 Nordeste 0 -- -- 92
2020-03-31 03:00:00 -2.5 14 Este 40 Nordeste 0 -- -- 94
2020-03-31 02:00:00 -2.2 13 Nordeste 41 Nordeste 0 -- -- 92
2020-03-31 01:00:00 -1.9 18 Nordeste 38 Este 0 -- -- 89
2020-03-31 00:00:00 -2.1 15 Nordeste 39 Este 0 -- -- 89
2020-03-30 23:00:00 -2.3 17 Este 43 Este 0 -- -- 88
2020-03-30 22:00:00 -2.4 14 Este 35 Este 0 -- -- 85
2020-03-30 21:00:00 -2.2 14 Nordeste 40 Nordeste 0 -- -- 82
2020-03-30 20:00:00 -1.2 16 Nordeste 52 Nordeste 0 -- -- 81
2020-03-30 19:00:00 -0.1 15 Nordeste 46 Nordeste 0 -- -- 72
2020-03-30 18:00:00 0.9 14 Nordeste 49 Este 0 -- -- 70
2020-03-30 17:00:00 2 16 Nordeste 45 Nordeste 0 -- -- 71
2020-03-30 16:00:00 2.9 18 Nordeste 51 Nordeste 0 -- -- 62
2020-03-30 15:00:00 3.6 17 Nordeste 48 Este 0 -- -- 59
2020-03-30 14:00:00 4.2 15 Este 38 Nordeste 0 -- -- 63
2020-03-30 13:00:00 4.6 15 Este 41 Nordeste 0 -- -- 64
2020-03-30 12:00:00 3.3 13 Este 53 Nordeste 0 -- -- 71
2020-03-30 11:00:00 1.4 14 Nordeste 42 Este 0 -- -- 73
2020-03-30 10:00:00 -0.4 14 Este 46 Norte 0 -- -- 82
2020-03-30 09:00:00 -0.6 15 Nordeste 40 Nordeste 0 -- -- 87
2020-03-30 08:00:00 -0.5 16 Nordeste 44 Norte 0 -- -- 85
2020-03-30 07:00:00 -0.4 11 Nordeste 38 Este 0 -- -- 84
2020-03-30 06:00:00 -0.2 15 Nordeste 37 Nordeste 0 -- -- 92
2020-03-30 05:00:00 0.3 15 Nordeste 32 Norte 0 -- -- 93
2020-03-30 04:00:00 0.9 13 Nordeste 35 Nordeste 0 -- -- 96
2020-03-30 03:00:00 1.2 15 Nordeste 35 Nordeste 0 -- -- 97
2020-03-30 02:00:00 1.5 14 Nordeste 41 Nordeste 0 -- -- 97
2020-03-30 01:00:00 2.3 15 Nordeste 32 Nordeste 0 -- -- 97
2020-03-30 00:00:00 3 14 Nordeste 41 Nordeste 0 -- -- 96
2020-03-29 23:00:00 3.5 14 Nordeste 40 Nordeste 0 -- -- 93
2020-03-29 22:00:00 3.9 14 Nordeste 33 Nordeste 0 -- -- 87
2020-03-29 21:00:00 4.7 12 Nordeste 37 Este 0 -- -- 83
2020-03-29 20:00:00 6 13 Nordeste 30 Este 0 -- -- 79
2020-03-29 19:00:00 7.5 9 Nordeste 27 Nordeste 0 -- -- 76
2020-03-29 18:00:00 10.3 9 Nordeste 23 Norte 0 -- -- 70
2020-03-29 17:00:00 10.6 9 Nordeste 23 Nordeste 0 -- -- 67
2020-03-29 16:00:00 10.9 7 Nordeste 18 Nordeste 0 -- -- 70
2020-03-29 15:00:00 11.2 4 Nordeste 12 Nordeste 0 -- -- 75
2020-03-29 14:00:00 9.6 4 Nordeste 9 Este 0 -- -- 77
2020-03-29 13:00:00 6.8 4 Este 12 Este 0 -- -- 95
2020-03-29 12:00:00 4 5 Este 15 Este 0 -- -- 99
2020-03-29 11:00:00 2.9 6 Este 14 Este 0 -- -- 100
2020-03-29 10:00:00 2.4 8 Sudeste 12 Sudeste 0 -- -- 98
2020-03-29 09:00:00 3.8 4 Este 11 Sudeste 0 -- -- 85
2020-03-29 08:00:00 4.3 6 Sudeste 12 Sudeste 0 -- -- 82
2020-03-29 07:00:00 3.9 6 Sudeste 10 Sudeste 0 -- -- 99
2020-03-29 06:00:00 2.6 6 Sudeste 10 Sudeste 0 -- -- 100
2020-03-29 05:00:00 2.9 5 Este 10 Este 0 -- -- 99
2020-03-29 03:00:00 3.5 5 Este 12 Este 0 -- -- 96
2020-03-29 01:00:00 4.1 4 Este 9 Nordeste 0 -- -- 93
2020-03-29 00:00:00 4.6 3 Este 8 Este 0 -- -- 89
2020-03-28 23:00:00 5.1 4 Este 12 Este 0 -- -- 85
2020-03-28 22:00:00 5.7 5 Este 14 Este 0 -- -- 83
2020-03-28 21:00:00 6.4 6 Nordeste 18 Nordeste 0 -- -- 80
2020-03-28 20:00:00 7.3 7 Nordeste 18 Nordeste 0 -- -- 77
2020-03-28 19:00:00 8.9 6 Norte 17 Noroeste 0 -- -- 72
2020-03-28 18:00:00 10.8 6 Norte 19 Nordeste 0 -- -- 58
2020-03-28 17:00:00 11.3 6 Norte 17 Noroeste 0 -- -- 51
2020-03-28 16:00:00 12.6 6 Noroeste 21 Oeste 0 -- -- 43
2020-03-28 15:00:00 11.9 6 Noroeste 26 Oeste 0 -- -- 53
2020-03-28 14:00:00 11.4 11 Sudoeste 20 Oeste 0 -- -- 47
2020-03-28 13:00:00 12.5 5 Este 14 Este 0 -- -- 39
2020-03-28 12:00:00 12.2 4 Este 15 Nordeste 0 -- -- 41
2020-03-28 11:00:00 10.9 5 Este 15 Este 0 -- -- 47
2020-03-28 10:00:00 8.7 5 Este 23 Este 0 -- -- 52
2020-03-28 09:00:00 6.9 8 Este 22 Sudeste 0 -- -- 51
2020-03-28 08:00:00 4.7 15 Sudeste 23 Sur 0 -- -- 55
2020-03-28 07:00:00 4.4 14 Sudeste 21 Sudeste 0 -- -- 54
2020-03-28 06:00:00 4.1 10 Sudeste 21 Sudeste 0 -- -- 55
2020-03-28 05:00:00 4.3 14 Sudeste 22 Sudeste 0 -- -- 54
2020-03-28 04:00:00 4.3 11 Sudeste 26 Sudeste 0 -- -- 53
2020-03-28 03:00:00 4.8 11 Sudeste 24 Sudeste 0 -- -- 51
2020-03-28 02:00:00 4.8 11 Sudeste 23 Sudeste 0 -- -- 52
2020-03-28 01:00:00 5 10 Sudeste 24 Sudeste 0 -- -- 52
2020-03-28 00:00:00 4.7 9 Sudeste 20 Sudeste 0 -- -- 59
2020-03-27 23:00:00 3.2 5 Este 9 Este 0 -- -- 74
2020-03-27 22:00:00 4.1 5 Este 14 Sudeste 0 -- -- 75
2020-03-27 21:00:00 4.9 5 Este 25 Sudeste 0 -- -- 68
2020-03-27 20:00:00 6.8 9 Este 26 Este 0 -- -- 42
2020-03-27 19:00:00 8.1 14 Sudeste 31 Sudeste 0 -- -- 36
2020-03-27 18:00:00 9 12 Sudeste 40 Sudeste 0 -- -- 34
2020-03-27 17:00:00 9.8 14 Este 36 Sudeste 0 -- -- 35
2020-03-27 16:00:00 10.3 13 Este 39 Sudeste 0 -- -- 34
2020-03-27 15:00:00 10.5 11 Este 37 Este 0 -- -- 38
2020-03-27 14:00:00 10.5 8 Este 32 Sudeste 0 -- -- 38
2020-03-27 13:00:00 9.2 10 Este 28 Este 0 -- -- 42
2020-03-27 12:00:00 7.8 9 Este 27 Este 0 -- -- 49
2020-03-27 11:00:00 5.7 10 Este 32 Este 0 -- -- 63
2020-03-27 10:00:00 2.8 9 Este 29 Este 0 -- -- 83
2020-03-27 09:00:00 -0.1 9 Este 25 Este 0 -- -- 93
2020-03-27 08:00:00 -1.5 8 Este 23 Este 0 -- -- 99
2020-03-27 07:00:00 -2 8 Este 17 Este 0 -- -- 98
2020-03-27 06:00:00 -1.7 6 Este 22 Sudeste 0 -- -- 98
2020-03-27 05:00:00 -1.4 8 Este 22 Este 0 -- -- 97
2020-03-27 04:00:00 -0.9 9 Este 32 Nordeste 0 -- -- 96
2020-03-27 03:00:00 -0.5 9 Este 29 Este 0 -- -- 95
2020-03-27 02:00:00 0.1 12 Este 34 Nordeste 0 -- -- 92
2020-03-27 01:00:00 0.6 15 Este 35 Este 0 -- -- 86
2020-03-27 00:00:00 0.9 15 Nordeste 37 Nordeste 0 -- -- 83
2020-03-26 23:00:00 1.1 14 Nordeste 31 Este 0 -- -- 87
2020-03-26 22:00:00 1.5 11 Este 27 Nordeste 0 -- -- 89
2020-03-26 21:00:00 2.6 13 Este 31 Este 0 -- -- 86
2020-03-26 20:00:00 4 10 Nordeste 25 Nordeste 0 -- -- 82
2020-03-26 19:00:00 6.3 5 Nordeste 21 Nordeste 0 -- -- 73
2020-03-26 18:00:00 8 6 Nordeste 21 Nordeste 0 -- -- 67
2020-03-26 17:00:00 9.4 6 Nordeste 18 Norte 0 -- -- 62
2020-03-26 16:00:00 10.3 7 Nordeste 19 Nordeste 0 -- -- 50
2020-03-26 15:00:00 9.9 5 Norte 19 Norte 0 -- -- 46
2020-03-26 14:00:00 9.5 6 Nordeste 21 Nordeste 0 -- -- 51
2020-03-26 13:00:00 7.4 4 Norte 15 Norte 0 -- -- 61
2020-03-26 12:00:00 6 6 Norte 19 Norte 0 -- -- 66
2020-03-26 11:00:00 4.4 5 Norte 12 Nordeste 0 -- -- 66
2020-03-26 10:00:00 4.5 7 Norte 13 Norte 0 -- -- 50
2020-03-26 09:00:00 4.2 3 Nordeste 13 Norte 0 -- -- 59
2020-03-26 08:00:00 2.1 4 Este 10 Este 0 -- -- 75
2020-03-26 07:00:00 2.1 4 Este 8 Este 0 -- -- 69
2020-03-26 06:00:00 3.5 4 Nordeste 10 Nordeste 0 -- -- 32
2020-03-26 05:00:00 4.3 4 Norte 11 Norte 0 -- -- 43
2020-03-26 04:00:00 5.6 6 Nordeste 10 Norte 0 -- -- 33
2020-03-26 03:00:00 4.9 4 Nordeste 12 Nordeste 0 -- -- 36
2020-03-26 02:00:00 4.4 5 Este 10 Este 0 -- -- 64
2020-03-26 01:00:00 3.9 5 Este 15 Nordeste 0 -- -- 81
2020-03-26 00:00:00 4.2 6 Este 11 Este 0 -- -- 79
2020-03-25 23:00:00 6 4 Este 10 Nordeste 0 -- -- 60
2020-03-25 22:00:00 6.3 3 Nordeste 13 Norte 0 -- -- 60
2020-03-25 21:00:00 7.2 5 Noroeste 18 Noroeste 0 -- -- 60
2020-03-25 20:00:00 8.1 9 Noroeste 18 Noroeste 0 -- -- 65
2020-03-25 19:00:00 10.7 10 Noroeste 18 Noroeste 0 -- -- 63
2020-03-25 18:00:00 12.6 11 Noroeste 23 Noroeste 0 -- -- 44
2020-03-25 17:00:00 12.9 9 Noroeste 26 Noroeste 0 -- -- 61
2020-03-25 16:00:00 14.8 6 Noroeste 27 Oeste 0 -- -- 51
2020-03-25 15:00:00 14.2 14 Oeste 25 Oeste 0 -- -- 51
2020-03-25 14:00:00 13.4 14 Noroeste 30 Oeste 0 -- -- 63
2020-03-25 13:00:00 12.8 13 Oeste 29 Oeste 0 -- -- 57
2020-03-25 12:00:00 12.1 8 Noroeste 16 Oeste 0 -- -- 65
2020-03-25 11:00:00 11.3 5 Nordeste 13 Norte 0 -- -- 74
2020-03-25 10:00:00 9.7 5 Noroeste 10 Oeste 0 -- -- 81
2020-03-25 09:00:00 8.7 6 Oeste 14 Oeste 0 -- -- 86
2020-03-25 08:00:00 7.9 10 Oeste 18 Oeste 0 -- -- 90
2020-03-25 07:00:00 7.7 13 Oeste 21 Sudoeste 0 -- -- 92
2020-03-25 06:00:00 7.8 14 Oeste 18 Sudoeste 0 -- -- 78
2020-03-25 05:00:00 8 7 Sudoeste 10 Sudoeste 0 -- -- 84
2020-03-25 04:00:00 8.1 9 Sudoeste 10 Sudoeste 0 -- -- 81
2020-03-25 03:00:00 8.9 9 Sudoeste 14 Sur 0 -- -- 80
2020-03-25 02:00:00 9.9 9 Sur 17 Sudeste 0 -- -- 68
2020-03-25 01:00:00 8.9 8 Sudeste 13 Sudeste 0 -- -- 86
2020-03-25 00:00:00 7.9 3 Este 6 Sudeste 0 -- -- 92
2020-03-24 23:00:00 8.4 3 Sudeste 6 Sudeste 0 -- -- 88
2020-03-24 22:00:00 8.6 3 Este 8 Sudeste 0 -- -- 89
2020-03-24 21:00:00 9.5 3 Este 11 Norte 0 -- -- 86
2020-03-24 20:00:00 10.3 4 Nordeste 15 Noroeste 0 -- -- 85
2020-03-24 19:00:00 12.1 6 Noroeste 18 Noroeste 0 -- -- 73
2020-03-24 18:00:00 13.7 2 Norte 5 Oeste 0 -- -- 54
2020-03-24 17:00:00 12.3 0 Calma 10 Este 0 -- -- 63
2020-03-24 16:00:00 12.8 2 Nordeste 13 Sudeste 0 -- -- 60
2020-03-24 15:00:00 13.4 3 Sudeste 14 Sudeste 0 -- -- 59
2020-03-24 14:00:00 14.1 5 Este 24 Este 0 -- -- 63
2020-03-24 13:00:00 13.6 6 Este 33 Sudeste 0 -- -- 63
2020-03-24 12:00:00 12.4 11 Este 36 Sudeste 0 -- -- 66
2020-03-24 11:00:00 11.1 12 Este 36 Sudeste 0 -- -- 72
2020-03-24 10:00:00 9.4 12 Este 37 Sudeste 0 -- -- 79
2020-03-24 09:00:00 8.1 12 Este 32 Sudeste 0 -- -- 85
2020-03-24 08:00:00 6.5 16 Este 37 Sudeste 0 -- -- 89
2020-03-24 07:00:00 6.2 17 Este 37 Sudeste 0 -- -- 90
2020-03-24 06:00:00 6.2 14 Este 37 Sudeste 0 -- -- 92
2020-03-24 05:00:00 6.1 17 Este 37 Sudeste 0 -- -- 93
2020-03-24 04:00:00 6 13 Este 33 Este 0 -- -- 94
2020-03-24 03:00:00 6.2 13 Sudeste 30 Sudeste 0 -- -- 94
2020-03-24 02:00:00 5.6 9 Este 26 Este 0 -- -- 100
2020-03-24 01:00:00 5.2 11 Este 24 Este 0 -- -- 100
2020-03-24 00:00:00 5.6 5 Este 15 Este 0 -- -- 100
2020-03-23 23:00:00 5.7 7 Este 18 Este 0 -- -- 100
2020-03-23 22:00:00 5.9 7 Este 21 Nordeste 0 -- -- 100
2020-03-23 21:00:00 6.2 6 Nordeste 17 Nordeste 0 -- -- 100
2020-03-23 20:00:00 6.5 8 Nordeste 17 Nordeste 0 -- -- 99
2020-03-23 19:00:00 7.4 4 Noroeste 13 Norte 0 -- -- 96
2020-03-23 18:00:00 9.2 5 Noroeste 16 Norte 0 -- -- 89
2020-03-23 17:00:00 10.1 9 Noroeste 22 Oeste 0 -- -- 87
2020-03-23 16:00:00 12 0 Calma 11 Norte 0 -- -- 66
2020-03-23 15:00:00 10.9 4 Norte 14 Nordeste 0 -- -- 73
2020-03-23 14:00:00 11.2 5 Nordeste 14 Nordeste 0 -- -- 77
2020-03-23 13:00:00 10.5 4 Este 10 Este 0 -- -- 93
2020-03-23 12:00:00 7.9 4 Este 13 Sudeste 0 -- -- 100
2020-03-23 11:00:00 5.5 5 Este 17 Nordeste 0 -- -- 100
2020-03-23 10:00:00 4.5 6 Este 15 Este 0 -- -- 100
2020-03-23 09:00:00 4.1 6 Este 15 Este 0 -- -- 100
2020-03-23 08:00:00 3.8 7 Este 14 Este 0 -- -- 100
2020-03-23 07:00:00 4 6 Este 13 Este 0 -- -- 100
2020-03-23 06:00:00 4.2 5 Este 10 Este 0 -- -- 100
2020-03-23 05:00:00 4.6 6 Este 11 Este 0 -- -- 100
2020-03-23 04:00:00 4.8 6 Este 15 Nordeste 0 -- -- 100
2020-03-23 03:00:00 5 6 Este 17 Este 0 -- -- 100
2020-03-23 02:00:00 5.1 6 Este 18 Este 0 -- -- 100
2020-03-23 01:00:00 5.1 7 Este 18 Nordeste 0 -- -- 100
2020-03-23 00:00:00 5.2 8 Este 17 Nordeste 0 -- -- 100
2020-03-22 23:00:00 5.4 7 Este 19 Nordeste 0 -- -- 100
2020-03-22 22:00:00 5.6 8 Nordeste 22 Nordeste 0 -- -- 100
2020-03-22 21:00:00 5.9 8 Este 28 Nordeste 0 -- -- 100
2020-03-22 20:00:00 6.9 11 Nordeste 24 Nordeste 0 -- -- 99
2020-03-22 19:00:00 8 9 Nordeste 21 Este 0 -- -- 97
2020-03-22 18:00:00 9.1 6 Nordeste 16 Norte 0 -- -- 96
2020-03-22 17:00:00 10.4 4 Norte 10 Norte 0 -- -- 92
2020-03-22 16:00:00 10 3 Nordeste 13 Este 0 -- -- 95
2020-03-22 15:00:00 9.6 4 Este 12 Nordeste 0 -- -- 100
2020-03-22 14:00:00 7.8 4 Norte 10 Norte 0 -- -- 100
2020-03-22 13:00:00 7.2 2 Este 9 Nordeste 0.2 -- -- 100
2020-03-22 12:00:00 6.3 4 Este 9 Este 0 -- -- 100
2020-03-22 11:00:00 5.9 4 Este 10 Este 0 -- -- 100
2020-03-22 10:00:00 5.4 5 Este 10 Este 0 -- -- 100
2020-03-22 09:00:00 5.3 5 Este 10 Este 0 -- -- 100
2020-03-22 08:00:00 5.1 5 Este 10 Nordeste 0 -- -- 100
2020-03-22 07:00:00 5.2 5 Este 12 Este 0 -- -- 100
2020-03-22 06:00:00 5.6 4 Este 9 Este 0 -- -- 100
2020-03-22 05:00:00 5.9 3 Este 9 Este 0 -- -- 100
2020-03-22 04:00:00 5.8 3 Nordeste 7 Este 0 -- -- 100
2020-03-22 03:00:00 6.2 4 Nordeste 9 Este 0 -- -- 100
2020-03-22 02:00:00 6.4 3 Nordeste 8 Nordeste 0 -- -- 100
2020-03-22 01:00:00 6.6 4 Nordeste 12 Nordeste 0 -- -- 100
2020-03-22 00:00:00 6.6 4 Este 14 Nordeste 0 -- -- 100
2020-03-21 23:00:00 7 6 Nordeste 11 Nordeste 0 -- -- 100
2020-03-21 22:00:00 6.9 5 Oeste 14 Oeste 0 -- -- 100
2020-03-21 21:00:00 7.5 8 Oeste 17 Nordeste 0 -- -- 98
2020-03-21 20:00:00 7.5 8 Este 23 Este 0.2 -- -- 100
2020-03-21 19:00:00 7.2 7 Este 20 Nordeste 0.6 -- -- 96
2020-03-21 18:00:00 8 6 Norte 21 Este 9.8 -- -- 87
2020-03-21 17:00:00 13 2 Noroeste 18 Sudeste 0 -- -- 65
2020-03-21 16:00:00 13.1 4 Este 17 Este 0 -- -- 67
2020-03-21 15:00:00 12.8 4 Este 15 Este 0 -- -- 74
2020-03-21 14:00:00 11.5 8 Este 23 Sudeste 0 -- -- 76
2020-03-21 13:00:00 11.5 10 Este 31 Sudeste 0 -- -- 76
2020-03-21 12:00:00 9.7 11 Este 30 Este 0 -- -- 83
2020-03-21 11:00:00 8.8 11 Sudeste 27 Sudeste 0 -- -- 84
2020-03-21 10:00:00 9.8 9 Este 30 Este 0 -- -- 85
2020-03-21 09:00:00 7.6 10 Este 29 Este 0 -- -- 92
2020-03-21 08:00:00 7 12 Este 36 Sudeste 0 -- -- 95
2020-03-21 07:00:00 6.6 13 Este 32 Este 0 -- -- 96
2020-03-21 06:00:00 6.6 12 Este 31 Este 0 -- -- 98
2020-03-21 05:00:00 6.7 10 Este 26 Este 0 -- -- 100
2020-03-21 04:00:00 6.6 6 Este 17 Este 0 -- -- 100
2020-03-21 03:00:00 7.1 5 Este 13 Sudeste 0 -- -- 100
2020-03-21 02:00:00 7 5 Este 16 Este 0 -- -- 99
2020-03-21 01:00:00 6.7 8 Este 15 Este 0 -- -- 97
2020-03-21 00:00:00 7 5 Este 14 Sudeste 0 -- -- 96
2020-03-20 23:00:00 7.3 7 Este 27 Sudeste 0 -- -- 94
2020-03-20 22:00:00 7.7 8 Este 20 Sudeste 0 -- -- 92
2020-03-20 21:00:00 8 9 Sudeste 21 Sudeste 0 -- -- 94
2020-03-20 20:00:00 8.1 6 Este 27 Este 0 -- -- 95
2020-03-20 19:00:00 8.3 12 Sudeste 25 Sudeste 0 -- -- 94
2020-03-20 18:00:00 8.4 9 Sudeste 25 Sudeste 0.2 -- -- 96
2020-03-20 17:00:00 8.3 11 Este 30 Sudeste 1 -- -- 97
2020-03-20 16:00:00 9.7 9 Sudeste 21 Este 0 -- -- 88
2020-03-20 15:00:00 10.7 7 Sudeste 26 Sudeste 0 -- -- 87
2020-03-20 14:00:00 9.8 8 Sudeste 26 Este 0 -- -- 91
2020-03-20 13:00:00 8.3 11 Sudeste 25 Sudeste 0 -- -- 98
2020-03-20 12:00:00 7.4 9 Sudeste 27 Este 0.4 -- -- 100
2020-03-20 11:00:00 6.7 10 Sudeste 27 Este 0.8 -- -- 100
2020-03-20 10:00:00 6.5 10 Sudeste 22 Sudeste 2 -- -- 99
2020-03-20 09:00:00 6.5 7 Este 19 Sudeste 1.6 -- -- 98
2020-03-20 08:00:00 6.8 10 Sudeste 29 Sudeste 0.8 -- -- 94
2020-03-20 07:00:00 7.4 13 Sudeste 28 Sudeste 0.4 -- -- 90
2020-03-20 06:00:00 8.1 12 Sudeste 25 Sudeste 0 -- -- 83
2020-03-20 05:00:00 8.3 14 Sudeste 22 Sudeste 0 -- -- 83
2020-03-20 04:00:00 8.2 9 Sudeste 17 Sudeste 0 -- -- 86
2020-03-20 03:00:00 8.6 6 Sudeste 17 Sudeste 0 -- -- 85
2020-03-20 02:00:00 8.7 11 Sudeste 19 Sudeste 0 -- -- 84
2020-03-20 01:00:00 7.9 6 Sudeste 14 Sudeste 0 -- -- 98
2020-03-20 00:00:00 8.1 5 Este 11 Este 0 -- -- 96
2020-03-19 23:00:00 8.4 3 Este 6 Norte 0 -- -- 92
2020-03-19 22:00:00 8.7 6 Noroeste 14 Oeste 0 -- -- 93
2020-03-19 21:00:00 8.9 10 Noroeste 19 Oeste 0 -- -- 94
2020-03-19 20:00:00 8.9 5 Este 15 Este 0 -- -- 94
2020-03-19 19:00:00 9.8 7 Este 31 Sudeste 2 -- -- 91
2020-03-19 18:00:00 11 15 Sudeste 26 Sudeste 1.8 -- -- 77
2020-03-19 17:00:00 14.3 5 Oeste 17 Oeste 0 -- -- 63
2020-03-19 16:00:00 15.3 10 Oeste 25 Oeste 0 -- -- 61
2020-03-19 15:00:00 15.8 10 Oeste 26 Oeste 0 -- -- 60
2020-03-19 14:00:00 15.5 12 Oeste 24 Oeste 0 -- -- 60
2020-03-19 13:00:00 16.1 5 Sudoeste 10 Sudeste 0 -- -- 58
2020-03-19 12:00:00 15.4 4 Sudeste 10 Sudeste 0 -- -- 64
2020-03-19 11:00:00 14.5 5 Este 18 Sudeste 0 -- -- 68
2020-03-19 10:00:00 12.7 7 Sudeste 17 Sudeste 0 -- -- 70
2020-03-19 09:00:00 11.2 9 Sudeste 27 Sudeste 0 -- -- 69
2020-03-19 08:00:00 11.1 15 Sudeste 22 Sudeste 0 -- -- 66
2020-03-19 07:00:00 11.5 11 Sur 17 Sur 0 -- -- 67
2020-03-19 06:00:00 11.6 10 Sudeste 13 Sudeste 0 -- -- 70
2020-03-19 05:00:00 11.7 9 Sudeste 15 Sudeste 0 -- -- 71
2020-03-19 04:00:00 11.7 9 Sur 12 Sur 0 -- -- 74
2020-03-19 03:00:00 11 4 Sur 10 Sudoeste 0 -- -- 76
2020-03-19 02:00:00 12.2 8 Sur 15 Sudeste 0 -- -- 69
2020-03-19 01:00:00 12.1 9 Sudeste 16 Sudeste 0 -- -- 71
2020-03-19 00:00:00 12.8 11 Sudeste 15 Sudeste 0 -- -- 72
2020-03-18 23:00:00 11.8 8 Sudeste 10 Sudeste 0 -- -- 79
2020-03-18 22:00:00 11 4 Sudeste 6 Sudeste 0 -- -- 83
2020-03-18 21:00:00 11.5 0 Calma 4 Este 0 -- -- 80
2020-03-18 20:00:00 12.9 2 Este 11 Noroeste 0 -- -- 73
2020-03-18 19:00:00 14.1 8 Noroeste 14 Noroeste 0 -- -- 68
2020-03-18 18:00:00 16.2 9 Oeste 22 Oeste 0 -- -- 64
2020-03-18 17:00:00 17.3 7 Oeste 19 Oeste 0 -- -- 59
2020-03-18 16:00:00 17.2 3 Norte 9 Noroeste 0 -- -- 49
2020-03-18 15:00:00 17.3 2 Este 11 Este 0 -- -- 53
2020-03-18 14:00:00 16.7 6 Este 15 Este 0 -- -- 57
2020-03-18 13:00:00 15.5 6 Este 14 Este 0 -- -- 58
2020-03-18 12:00:00 14.7 6 Este 13 Este 0 -- -- 58
2020-03-18 11:00:00 13.4 6 Este 20 Este 0 -- -- 67
2020-03-18 10:00:00 11.2 9 Este 22 Este 0 -- -- 77
2020-03-18 09:00:00 9.6 10 Sudeste 22 Sudeste 0 -- -- 81
2020-03-18 08:00:00 8.3 13 Sudeste 24 Este 0 -- -- 83
2020-03-18 07:00:00 8.3 13 Sudeste 24 Sudeste 0 -- -- 84
2020-03-18 06:00:00 8.7 11 Sudeste 28 Sudeste 0 -- -- 81
2020-03-18 05:00:00 8.4 15 Sudeste 28 Sudeste 0 -- -- 85
2020-03-18 04:00:00 8.3 15 Sudeste 29 Sudeste 0 -- -- 86
2020-03-18 03:00:00 8.5 15 Sudeste 30 Sudeste 0 -- -- 85
2020-03-18 02:00:00 8.4 15 Sudeste 30 Sudeste 0 -- -- 86
2020-03-18 01:00:00 8.5 17 Sudeste 32 Sudeste 0 -- -- 85
2020-03-18 00:00:00 8.4 14 Sudeste 27 Este 0 -- -- 84
2020-03-17 23:00:00 8.6 14 Este 27 Sudeste 0 -- -- 83
2020-03-17 22:00:00 8.4 11 Este 26 Sudeste 0 -- -- 86
2020-03-17 21:00:00 7.7 5 Este 9 Este 0 -- -- 93
2020-03-17 20:00:00 8.6 4 Este 13 Este 0 -- -- 91
2020-03-17 19:00:00 9.7 4 Nordeste 15 Norte 0 -- -- 89
2020-03-17 18:00:00 11.1 8 Norte 16 Noroeste 0 -- -- 83
2020-03-17 17:00:00 12.8 4 Este 19 Este 0 -- -- 70
2020-03-17 16:00:00 12.9 6 Este 17 Este 0 -- -- 73
2020-03-17 15:00:00 12.8 5 Este 15 Nordeste 0 -- -- 71
2020-03-17 14:00:00 12.1 6 Este 14 Nordeste 0 -- -- 76
2020-03-17 13:00:00 10 4 Nordeste 13 Este 0 -- -- 80
2020-03-17 12:00:00 8.4 5 Este 17 Este 0 -- -- 81
2020-03-17 11:00:00 6 8 Este 19 Este 0 -- -- 90
2020-03-17 10:00:00 4 8 Este 19 Este 0 -- -- 100
2020-03-17 09:00:00 1.1 7 Este 23 Este 0 -- -- 100
2020-03-17 08:00:00 0.6 9 Este 27 Nordeste 0 -- -- 100
2020-03-17 07:00:00 0.6 10 Este 27 Este 0 -- -- 100
2020-03-17 06:00:00 0.5 10 Este 27 Nordeste 0 -- -- 100
2020-03-17 05:00:00 0.5 10 Este 26 Este 0 -- -- 100
2020-03-17 04:00:00 0.5 12 Nordeste 33 Este 0 -- -- 98
2020-03-17 03:00:00 0.7 14 Nordeste 36 Nordeste 0 -- -- 97
2020-03-17 02:00:00 0.7 18 Nordeste 39 Nordeste 0 -- -- 96
2020-03-17 01:00:00 0.6 16 Nordeste 42 Este 0 -- -- 94
2020-03-17 00:00:00 0.6 19 Nordeste 47 Este 0 -- -- 94
2020-03-16 23:00:00 0.5 21 Nordeste 47 Nordeste 0 -- -- 94
2020-03-16 22:00:00 0.3 16 Nordeste 51 Nordeste 0 -- -- 96
2020-03-16 21:00:00 0.5 18 Nordeste 46 Este 0 -- -- 99
2020-03-16 20:00:00 0.9 13 Nordeste 36 Nordeste 0 -- -- 99
2020-03-16 19:00:00 1.7 13 Nordeste 52 Nordeste 0 -- -- 100
2020-03-16 18:00:00 2 13 Nordeste 48 Norte 0.2 -- -- 100
2020-03-16 17:00:00 2.5 12 Nordeste 38 Norte 0 -- -- 100
2020-03-16 16:00:00 2.7 15 Nordeste 39 Norte 0 -- -- 100
2020-03-16 15:00:00 2.8 13 Nordeste 40 Nordeste 0 -- -- 100
2020-03-16 14:00:00 2.6 14 Nordeste 36 Nordeste 2 -- -- 100
2020-03-16 13:00:00 2.1 13 Nordeste 36 Nordeste 3 -- -- 100
2020-03-16 12:00:00 1.4 13 Nordeste 39 Nordeste 2.8 -- -- 100
2020-03-16 11:00:00 0.3 13 Nordeste 31 Nordeste 1.2 -- -- 100
2020-03-16 10:00:00 0 9 Nordeste 23 Nordeste 0 -- -- 100
2020-03-16 09:00:00 -0.3 7 Nordeste 17 Nordeste 0 -- -- 100
2020-03-16 08:00:00 -0.6 6 Nordeste 19 Noroeste 0 -- -- 100
2020-03-16 07:00:00 -0.6 5 Nordeste 17 Noroeste 0 -- -- 100
2020-03-16 06:00:00 -0.6 6 Norte 18 Norte 0 -- -- 100
2020-03-16 05:00:00 -0.8 5 Norte 15 Noroeste 0 -- -- 100
2020-03-16 04:00:00 -0.7 6 Nordeste 15 Noroeste 0 -- -- 100
2020-03-16 03:00:00 -0.9 5 Norte 20 Noroeste 0 -- -- 100
2020-03-16 02:00:00 -1 7 Norte 17 Norte 0 -- -- 100
2020-03-16 01:00:00 -1.1 6 Norte 16 Norte 0 -- -- 100
2020-03-16 00:00:00 -0.6 6 Norte 18 Norte 0 -- -- 100
2020-03-15 23:00:00 -0.9 6 Noroeste 14 Noroeste 0 -- -- 100
2020-03-15 22:00:00 -0.6 8 Noroeste 13 Noroeste 0 -- -- 100
2020-03-15 21:00:00 -0.7 6 Noroeste 12 Noroeste 0 -- -- 100
2020-03-15 20:00:00 -0.8 0 Calma 10 Noroeste 0.2 -- -- 100
2020-03-15 19:00:00 -0.7 4 Noroeste 10 Noroeste 0 -- -- 100
2020-03-15 18:00:00 -0.5 6 Noroeste 30 Oeste 0 -- -- 100
2020-03-15 17:00:00 -0.5 18 Oeste 34 Noroeste 0.2 -- -- 100
2020-03-15 16:00:00 1.1 20 Oeste 37 Oeste 1.4 -- -- 99
2020-03-15 15:00:00 2.3 21 Oeste 37 Oeste 1.2 -- -- 99
2020-03-15 14:00:00 6 14 Oeste 30 Noroeste 0 -- -- 86
2020-03-15 13:00:00 8.4 9 Sur 25 Sudoeste 0 -- -- 70
2020-03-15 12:00:00 7.2 10 Sudoeste 27 Sudoeste 0 -- -- 75
2020-03-15 11:00:00 4.4 10 Sudoeste 28 Oeste 0 -- -- 100
2020-03-15 10:00:00 2.3 14 Oeste 26 Oeste 0 -- -- 100
2020-03-15 09:00:00 3.3 14 Oeste 28 Oeste 0 -- -- 92
2020-03-15 08:00:00 3.8 17 Oeste 30 Sudoeste 0 -- -- 90
2020-03-15 07:00:00 4.9 17 Oeste 31 Oeste 0 -- -- 87
2020-03-15 06:00:00 4.3 18 Sudoeste 27 Oeste 0 -- -- 74
2020-03-15 05:00:00 9.4 7 Sudoeste 21 Sudoeste 0 -- -- 27
2020-03-15 04:00:00 9.5 10 Sur 24 Sudeste 0 -- -- 33
2020-03-15 03:00:00 9.6 12 Sur 23 Sur 0 -- -- 44
2020-03-15 02:00:00 9.4 9 Sur 15 Sur 0 -- -- 50
2020-03-15 01:00:00 8.8 4 Sur 11 Sudeste 0 -- -- 62
2020-03-15 00:00:00 8.3 3 Sur 10 Sudoeste 0 -- -- 62
2020-03-14 23:00:00 8.3 10 Sudoeste 13 Oeste 0 -- -- 60
2020-03-14 22:00:00 7.7 5 Sur 15 Oeste 0 -- -- 66
2020-03-14 21:00:00 8 6 Oeste 15 Oeste 0 -- -- 74
2020-03-14 20:00:00 9.4 12 Oeste 17 Sudoeste 0 -- -- 67
2020-03-14 19:00:00 11.3 10 Oeste 18 Oeste 0 -- -- 55
2020-03-14 18:00:00 12.8 11 Oeste 21 Sudoeste 0 -- -- 49
2020-03-14 17:00:00 13.1 13 Oeste 21 Oeste 0 -- -- 54
2020-03-14 16:00:00 13.6 7 Oeste 14 Oeste 0 -- -- 51
2020-03-14 15:00:00 12.4 7 Noroeste 15 Oeste 0 -- -- 56
2020-03-14 14:00:00 11.5 3 Norte 11 Oeste 0 -- -- 66
2020-03-14 13:00:00 10.8 3 Norte 6 Nordeste 0 -- -- 71
2020-03-14 12:00:00 10.5 3 Este 7 Este 0 -- -- 61
2020-03-14 11:00:00 8.1 3 Este 6 Este 0 -- -- 58
2020-03-14 10:00:00 7.4 2 Este 6 Este 0 -- -- 46
2020-03-14 09:00:00 4.8 3 Nordeste 5 Nordeste 0 -- -- 58
2020-03-14 08:00:00 1.1 3 Este 8 Este 0 -- -- 67
2020-03-14 07:00:00 2.5 0 Calma 5 Este 0 -- -- 55
2020-03-14 06:00:00 3 2 Este 4 Este 0 -- -- 46
2020-03-14 05:00:00 2.6 0 Calma 8 Sudeste 0 -- -- 56
2020-03-14 04:00:00 1.8 5 Sudeste 12 Sudeste 0 -- -- 100
2020-03-14 03:00:00 2.5 7 Sudeste 14 Sudeste 0 -- -- 100
2020-03-14 02:00:00 3 5 Este 10 Este 0 -- -- 100
2020-03-14 01:00:00 3.3 5 Este 10 Sudeste 0 -- -- 100
2020-03-14 00:00:00 3.6 4 Este 10 Este 0 -- -- 100
2020-03-13 23:00:00 3.7 5 Este 17 Este 0 -- -- 100
2020-03-13 22:00:00 3.9 6 Este 20 Noroeste 0 -- -- 100
2020-03-13 21:00:00 4.6 5 Este 16 Sudeste 0 -- -- 96
2020-03-13 20:00:00 5.5 5 Nordeste 15 Noroeste 0 -- -- 92
2020-03-13 19:00:00 7.6 3 Noroeste 8 Este 0 -- -- 84
2020-03-13 18:00:00 8.2 5 Este 10 Este 0 -- -- 84
2020-03-13 17:00:00 8.7 4 Nordeste 15 Este 0 -- -- 81
2020-03-13 16:00:00 8.2 5 Nordeste 13 Nordeste 0 -- -- 86
2020-03-13 15:00:00 8.1 6 Este 14 Nordeste 0 -- -- 89
2020-03-13 14:00:00 7 6 Este 13 Este 0 -- -- 99
2020-03-13 13:00:00 5.9 5 Este 13 Nordeste 0 -- -- 100
2020-03-13 12:00:00 5.4 5 Este 15 Este 0 -- -- 100
2020-03-13 11:00:00 4.4 7 Este 19 Este 0 -- -- 100
2020-03-13 10:00:00 3.6 8 Este 20 Nordeste 0 -- -- 100
2020-03-13 09:00:00 3.2 8 Este 14 Este 0 -- -- 100
2020-03-13 08:00:00 3 8 Este 22 Nordeste 0 -- -- 100
2020-03-13 07:00:00 3 8 Este 19 Este 0 -- -- 100
2020-03-13 06:00:00 3 9 Este 28 Este 0 -- -- 100
2020-03-13 05:00:00 3 9 Nordeste 26 Nordeste 0 -- -- 100
2020-03-13 04:00:00 3 11 Este 24 Nordeste 0 -- -- 100
2020-03-13 03:00:00 3.2 10 Nordeste 25 Nordeste 0 -- -- 100
2020-03-13 02:00:00 3.3 9 Nordeste 22 Este 0 -- -- 100
2020-03-13 01:00:00 3.5 11 Nordeste 24 Nordeste 0 -- -- 100
2020-03-13 00:00:00 3.8 12 Nordeste 25 Este 0 -- -- 100
2020-03-12 23:00:00 3.9 11 Este 27 Este 0 -- -- 100
2020-03-12 22:00:00 4.1 12 Nordeste 27 Este 0 -- -- 100
2020-03-12 21:00:00 4.5 11 Nordeste 30 Nordeste 0 -- -- 100
2020-03-12 20:00:00 5.3 9 Nordeste 25 Este 0 -- -- 100
2020-03-12 19:00:00 5.9 9 Nordeste 22 Nordeste 0 -- -- 99
2020-03-12 18:00:00 6.5 9 Nordeste 26 Nordeste 0 -- -- 98
2020-03-12 17:00:00 7.5 9 Nordeste 21 Norte 0 -- -- 95
2020-03-12 16:00:00 8.4 9 Nordeste 21 Nordeste 0 -- -- 93
2020-03-12 15:00:00 8 7 Nordeste 18 Norte 0 -- -- 99
2020-03-12 14:00:00 8.4 6 Norte 15 Norte 0 -- -- 100
2020-03-12 13:00:00 8.8 6 Nordeste 13 Nordeste 0 -- -- 100
2020-03-12 12:00:00 7.4 4 Este 11 Este 0 -- -- 100
2020-03-12 11:00:00 6.8 5 Nordeste 12 Norte 0 -- -- 100
2020-03-12 10:00:00 6.8 4 Nordeste 13 Norte 0 -- -- 100
2020-03-12 09:00:00 6 4 Norte 12 Norte 0 -- -- 100
2020-03-12 08:00:00 6 7 Noroeste 12 Norte 0 -- -- 100
2020-03-12 07:00:00 6.8 0 Calma 6 Noroeste 0 -- -- 100
2020-03-12 06:00:00 7.1 4 Noroeste 9 Norte 0 -- -- 100
2020-03-12 05:00:00 7.4 2 Norte 7 Noroeste 0 -- -- 100
2020-03-12 04:00:00 7.7 0 Calma 6 Sur 0 -- -- 100
2020-03-12 03:00:00 8 4 Sudeste 6 Oeste 0 -- -- 100
2020-03-12 02:00:00 8.2 4 Oeste 14 Oeste 0 -- -- 100
2020-03-12 01:00:00 8.4 9 Oeste 17 Oeste 0 -- -- 100
2020-03-12 00:00:00 8.8 10 Sudoeste 14 Oeste 0 -- -- 100
2020-03-11 23:00:00 9.5 9 Oeste 14 Oeste 0 -- -- 99
2020-03-11 22:00:00 9.6 10 Oeste 14 Oeste 0 -- -- 98
2020-03-11 21:00:00 10.1 10 Oeste 23 Oeste 0 -- -- 96
2020-03-11 20:00:00 11.9 16 Oeste 26 Noroeste 0 -- -- 88
2020-03-11 19:00:00 15.3 9 Oeste 23 Oeste 0 -- -- 73
2020-03-11 18:00:00 16.9 7 Sudoeste 20 Sudoeste 0 -- -- 46
2020-03-11 17:00:00 17.4 9 Oeste 23 Oeste 0 -- -- 56
2020-03-11 16:00:00 17.3 7 Sudoeste 30 Sur 0 -- -- 57
2020-03-11 15:00:00 16.5 11 Oeste 25 Sudoeste 0 -- -- 61
2020-03-11 14:00:00 15.6 13 Oeste 22 Oeste 0 -- -- 63
2020-03-11 13:00:00 14.9 14 Oeste 22 Oeste 0 -- -- 65
2020-03-11 12:00:00 15.1 4 Sudoeste 9 Sudoeste 0 -- -- 67
2020-03-11 11:00:00 13.5 3 Oeste 9 Oeste 0 -- -- 71
2020-03-11 10:00:00 12.4 4 Sudoeste 13 Sudoeste 0 -- -- 71
2020-03-11 09:00:00 11.1 4 Sudeste 12 Sur 0 -- -- 77
2020-03-11 08:00:00 9.6 4 Sudeste 15 Sudoeste 0 -- -- 83
2020-03-11 07:00:00 9.9 8 Sudoeste 17 Sudoeste 0 -- -- 81
2020-03-11 06:00:00 9.7 7 Sudoeste 14 Sudoeste 0 -- -- 83
2020-03-11 05:00:00 9.5 5 Sudoeste 14 Sudoeste 0 -- -- 83
2020-03-11 04:00:00 9.2 7 Sudoeste 14 Sudoeste 0 -- -- 82
2020-03-11 03:00:00 9.5 4 Sudeste 15 Sudoeste 0 -- -- 78
2020-03-11 02:00:00 9.4 4 Sudoeste 13 Sudoeste 0 -- -- 75
2020-03-11 01:00:00 9.1 8 Sudoeste 15 Sudoeste 0 -- -- 77
2020-03-11 00:00:00 8.5 4 Sur 11 Sur 0 -- -- 91
2020-03-10 23:00:00 8.8 4 Sur 19 Sudoeste 0 -- -- 91
2020-03-10 22:00:00 8.7 4 Oeste 17 Sudoeste 0 -- -- 97
2020-03-10 21:00:00 9.5 6 Oeste 20 Oeste 0 -- -- 93
2020-03-10 20:00:00 11.3 8 Oeste 21 Oeste 0 -- -- 82
2020-03-10 19:00:00 13.4 7 Oeste 19 Oeste 0 -- -- 73
2020-03-10 18:00:00 15.3 9 Sudoeste 26 Sudoeste 0 -- -- 57
2020-03-10 17:00:00 15.7 10 Sudoeste 26 Sudoeste 0 -- -- 53
2020-03-10 16:00:00 15.5 8 Oeste 26 Oeste 0 -- -- 52
2020-03-10 15:00:00 15 13 Sudoeste 30 Sudoeste 0 -- -- 50
2020-03-10 14:00:00 15.2 8 Sudoeste 30 Oeste 0 -- -- 43
2020-03-10 13:00:00 15 8 Sudoeste 32 Sudoeste 0 -- -- 36
2020-03-10 12:00:00 14.4 12 Sudoeste 31 Sudoeste 0 -- -- 21
2020-03-10 11:00:00 13.1 8 Sudoeste 23 Sudoeste 0 -- -- 18
2020-03-10 10:00:00 10.6 10 Sudoeste 25 Sudoeste 0 -- -- 18
2020-03-10 09:00:00 9.7 9 Sudoeste 23 Sudoeste 0 -- -- 13
2020-03-10 08:00:00 9.3 9 Sudoeste 19 Sudoeste 0 -- -- 13
2020-03-10 07:00:00 8.9 7 Sudoeste 18 Sur 0 -- -- 14
2020-03-10 06:00:00 8 5 Sudoeste 17 Sudoeste 0 -- -- 14
2020-03-10 05:00:00 7.9 10 Sudoeste 20 Sudoeste 0 -- -- 25
2020-03-10 04:00:00 8 13 Sudoeste 22 Sudoeste 0 -- -- 38
2020-03-10 03:00:00 7.8 12 Sudoeste 21 Sudoeste 0 -- -- 37
2020-03-10 02:00:00 7.5 15 Sudoeste 23 Sudoeste 0 -- -- 61
2020-03-10 01:00:00 7.1 16 Sudoeste 24 Sudoeste 0 -- -- 74
2020-03-10 00:00:00 6.9 14 Sudoeste 20 Sudoeste 0 -- -- 77
2020-03-09 23:00:00 6.8 12 Sudoeste 17 Sudoeste 0 -- -- 80
2020-03-09 22:00:00 6.3 12 Sudoeste 17 Sudoeste 0 -- -- 83
2020-03-09 21:00:00 6.4 11 Sudoeste 14 Sudoeste 0 -- -- 83
2020-03-09 20:00:00 6.5 11 Oeste 16 Sudoeste 0 -- -- 83
2020-03-09 19:00:00 7.6 10 Oeste 14 Sudoeste 0 -- -- 76
2020-03-09 18:00:00 8.8 5 Sudoeste 18 Oeste 0 -- -- 71
2020-03-09 17:00:00 9.2 7 Oeste 19 Oeste 0 -- -- 71
2020-03-09 16:00:00 8.8 9 Oeste 21 Oeste 0 -- -- 74
2020-03-09 15:00:00 7.9 9 Oeste 21 Oeste 0 -- -- 80
2020-03-09 14:00:00 7.6 9 Oeste 25 Oeste 0 -- -- 77
2020-03-09 13:00:00 6.5 6 Oeste 19 Sudoeste 0 -- -- 82
2020-03-09 12:00:00 4.7 8 Oeste 15 Oeste 0 -- -- 100
2020-03-09 11:00:00 3.1 5 Sudoeste 14 Sudoeste 0 -- -- 100
2020-03-09 10:00:00 2.6 4 Oeste 13 Oeste 0 -- -- 100
2020-03-09 09:00:00 2.2 3 Sudoeste 14 Oeste 0 -- -- 100
2020-03-09 08:00:00 2.3 4 Oeste 16 Oeste 0 -- -- 100
2020-03-09 07:00:00 2.2 8 Oeste 21 Oeste 0 -- -- 100
2020-03-09 06:00:00 2.6 5 Oeste 17 Oeste 0 -- -- 100
2020-03-09 05:00:00 2.4 10 Oeste 21 Oeste 0 -- -- 100
2020-03-09 04:00:00 2.7 10 Oeste 24 Oeste 0 -- -- 100
2020-03-09 03:00:00 3 9 Oeste 23 Sudoeste 0 -- -- 100
2020-03-09 02:00:00 3.2 12 Oeste 24 Oeste 0 -- -- 100
2020-03-09 01:00:00 3.6 7 Oeste 22 Oeste 0 -- -- 100
2020-03-09 00:00:00 3.8 9 Oeste 23 Oeste 0 -- -- 100
2020-03-08 23:00:00 3.9 12 Oeste 28 Sudoeste 0 -- -- 100
2020-03-08 22:00:00 4.5 9 Oeste 32 Sudoeste 0 -- -- 100
2020-03-08 21:00:00 4.9 12 Oeste 30 Oeste 0 -- -- 97
2020-03-08 20:00:00 5.5 14 Oeste 38 Oeste 0 -- -- 93
2020-03-08 19:00:00 6.4 11 Oeste 35 Oeste 0 -- -- 91
2020-03-08 18:00:00 7.2 15 Oeste 36 Oeste 0 -- -- 88
2020-03-08 17:00:00 7.7 6 Sur 29 Sur 0 -- -- 96
2020-03-08 16:00:00 7.4 8 Sur 31 Sudoeste 0 -- -- 100
2020-03-08 15:00:00 7.1 10 Sur 32 Oeste 0 -- -- 100
2020-03-08 14:00:00 6.9 9 Sur 30 Oeste 0 -- -- 100
2020-03-08 13:00:00 6.3 10 Sur 28 Sudoeste 0 -- -- 100
2020-03-08 12:00:00 5.8 9 Sur 30 Sudoeste 0 -- -- 100
2020-03-08 11:00:00 5.3 7 Sur 22 Sudoeste 0 -- -- 100
2020-03-08 10:00:00 4.8 10 Sur 30 Sudoeste 0.8 -- -- 100
2020-03-08 09:00:00 4.3 10 Sudoeste 30 Sudoeste 0 -- -- 100
2020-03-08 08:00:00 4 12 Sudoeste 28 Oeste 0 -- -- 100
2020-03-08 07:00:00 3.4 9 Sudoeste 27 Sudoeste 0.8 -- -- 100
2020-03-08 06:00:00 3.2 6 Oeste 30 Sudoeste 0 -- -- 94
2020-03-08 05:00:00 2.6 13 Sudoeste 39 Sudoeste 0 -- -- 100
2020-03-08 04:00:00 2.5 19 Sudoeste 41 Sudoeste 0 -- -- 100
2020-03-08 03:00:00 2.6 5 Sudeste 24 Sudoeste 0 -- -- 100
2020-03-08 02:00:00 3.3 5 Sudoeste 27 Sur 0 -- -- 100
2020-03-08 01:00:00 3.6 7 Sur 24 Sudoeste 0 -- -- 100
2020-03-08 00:00:00 3.4 7 Sudoeste 22 Sudoeste 0 -- -- 100